This is the latest recevied weather packets stored in our database for station/object SQ5RTW-1. If no packets are shown the sender has not sent any weather packets the latest 10 day(s).
| Time | Temp. | Humidity | Pressure | Rain* | Wind** | Luminosity | Snow |
|---|---|---|---|---|---|---|---|
| 1777547954 | 18.89° C | 22% | 1032 hPa | - | - | - | - |
| 1777547930 | 16.11° C | 22% | 1031.9 hPa | - | - | - | - |
| 1777547029 | 15.56° C | 23% | 1032.3 hPa | - | - | - | - |
| 1777546128 | 17.22° C | 23% | 1032.5 hPa | - | - | - | - |
| 1777545227 | 17.78° C | 23% | 1032.4 hPa | - | - | - | - |
| 1777545211 | 18.33° C | 24% | 1032.5 hPa | - | - | - | - |
| 1777545186 | 16.11° C | 24% | 1032.5 hPa | - | - | - | - |
| 1777544285 | 16.67° C | 23% | 1032.7 hPa | - | - | - | - |
| 1777543384 | 14.44° C | 29% | 1032.8 hPa | - | - | - | - |
| 1777542483 | 12.22° C | 33% | 1032.8 hPa | - | - | - | - |
| 1777541582 | 11.67° C | 34% | 1033.1 hPa | - | - | - | - |
| 1777540681 | 13.33° C | 34% | 1033.3 hPa | - | - | - | - |
| 1777540665 | 14.44° C | 34% | 1033.3 hPa | - | - | - | - |
| 1777540640 | 11.67° C | 34% | 1033.2 hPa | - | - | - | - |
| 1777539739 | 11.11° C | 36% | 1033.3 hPa | - | - | - | - |
| 1777538838 | 11.11° C | 38% | 1033.4 hPa | - | - | - | - |
| 1777537937 | 11.11° C | 39% | 1033.5 hPa | - | - | - | - |
| 1777537036 | 12.78° C | 37% | 1033.5 hPa | - | - | - | - |
| 1777537018 | 11.67° C | 37% | 1033.6 hPa | - | - | - | - |
| 1777536117 | 11.11° C | 37% | 1033.5 hPa | - | - | - | - |
| 1777535216 | 10.56° C | 41% | 1033.6 hPa | - | - | - | - |
| 1777534315 | 8.89° C | 44% | 1033.5 hPa | - | - | - | - |
| 1777533414 | 8.89° C | 49% | 1033.6 hPa | - | - | - | - |
| 1777533395 | 7.22° C | 49% | 1033.6 hPa | - | - | - | - |
| 1777532494 | 8.33° C | 51% | 1033.8 hPa | - | - | - | - |
* Rain since midnight (hover to see other rain measurements)
** Current wind speed in m/s (hover to see current wind gust speed)